DW8501 Madrid ES current weather conditions

sailwx.info

Wind from 091 at 3 knots gusting 5

Air temperature 11.1° C
Dewpoint 7.2° C

Last reported at 2016-Apr-29 02:51 UTC.
Time now 2016-Apr-29 03:59 UTC

Location: N 40°27' W 003°35'.
View on Google Maps.

See reports from other nearby stations

  
Tides and Currents Weather Stations Pressure Air Temp Water Temp Dewpoint Dewpoint Depression Visibility Wind Speed Wind Dir Waves Ship Positions
date/time (UTC)wind fromknots sea level pressurealtimeterstation pressurevisibilityair tempwater tempwave heightnotes
2016-Apr-29 02:51 091 3 gusting 5 11.1
2016-Apr-29 02:46 092 3 gusting 5 11.1
2016-Apr-29 02:41 092 2 gusting 5 11.1
2016-Apr-29 02:36 084 1 gusting 6 11.1
2016-Apr-29 02:31 073 1 gusting 6 11.1
2016-Apr-29 02:26 074 4 gusting 6 11.1
2016-Apr-29 02:21 071 2 gusting 6 11.1
2016-Apr-29 02:15 094 6 gusting 6 11.1
2016-Apr-29 02:11 122 5 gusting 6 11.1
2016-Apr-29 02:06 125 3 gusting 5 11.1
2016-Apr-29 02:01 108 3 gusting 5 11.1
2016-Apr-29 01:56 090 3 gusting 5 11.1
2016-Apr-29 01:51 076 3 gusting 5 11.7
2016-Apr-29 01:45 075 2 gusting 6 11.7
2016-Apr-29 01:41 074 2 gusting 6 11.7
2016-Apr-29 01:35 085 3 gusting 6 11.7
2016-Apr-29 01:31 095 3 gusting 8 11.7
2016-Apr-29 01:26 090 4 gusting 8 11.7
2016-Apr-29 01:21 081 3 gusting 7 11.7
2016-Apr-29 01:15 090 2 gusting 5 11.7
2016-Apr-29 01:11 091 2 gusting 6 11.7
2016-Apr-29 01:05 087 2 gusting 6 11.7
2016-Apr-29 01:01 088 3 gusting 6 11.7
2016-Apr-29 00:56 084 3 gusting 6 11.7
2016-Apr-29 00:51 087 3 gusting 5 11.7
2016-Apr-29 00:46 080 3 gusting 8 11.7
2016-Apr-29 00:41 082 2 gusting 9 12.2
2016-Apr-29 00:36 086 3 gusting 9 12.2
2016-Apr-29 00:31 070 4 gusting 8 12.2
2016-Apr-29 00:26 072 3 gusting 8 12.2
2016-Apr-29 00:21 073 6 gusting 8 12.2
2016-Apr-29 00:15 070 3 gusting 6 12.2
2016-Apr-29 00:11 066 3 gusting 6 12.2
2016-Apr-29 00:05 054 2 gusting 6 12.2
2016-Apr-29 00:01 078 2 gusting 6 12.2
2016-Apr-28 23:55 095 3 gusting 6 12.8
2016-Apr-28 23:51 090 5 gusting 6 12.8
2016-Apr-28 23:45 083 5 gusting 6 12.8
2016-Apr-28 23:41 098 3 gusting 6 12.8
2016-Apr-28 23:35 101 1 gusting 6 12.8
2016-Apr-28 23:31 081 3 gusting 6 13.3
2016-Apr-28 23:25 065 4 gusting 6 13.3
2016-Apr-28 23:21 058 4 gusting 6 13.3
2016-Apr-28 23:15 057 3 gusting 6 13.3
2016-Apr-28 23:11 059 3 gusting 7 13.3
2016-Apr-28 23:05 056 4 gusting 9 13.3
2016-Apr-28 23:01 064 6 gusting 9 13.3
2016-Apr-28 22:55 069 6 gusting 9 13.3
2016-Apr-28 22:51 049 7 gusting 9 13.9
2016-Apr-28 22:45 044 4 gusting 7 13.9
2016-Apr-28 22:41 043 5 gusting 6 13.9
2016-Apr-28 22:35 041 4 gusting 6 13.9
2016-Apr-28 22:31 043 4 gusting 6 13.9
2016-Apr-28 22:25 040 5 gusting 6 13.9
2016-Apr-28 22:21 038 5 gusting 6 13.9
2016-Apr-28 22:15 031 3 gusting 6 13.9
2016-Apr-28 22:11 036 2 gusting 4 14.4
2016-Apr-28 22:05 043 3 gusting 4 14.4
2016-Apr-28 22:01 043 3 gusting 4 14.4
2016-Apr-28 21:55 046 1 gusting 3 14.4
2016-Apr-28 21:51 050 2 gusting 3 14.4
2016-Apr-28 21:45 055 2 gusting 3 14.4
2016-Apr-28 21:41 086 2 gusting 3 14.4
2016-Apr-28 21:35 120 1 gusting 2 14.4
2016-Apr-28 21:31 107 1 gusting 1 14.4
2016-Apr-28 21:25 079 0 gusting 2 14.4
2016-Apr-28 21:21 068 0 gusting 2 14.4
2016-Apr-28 21:16 102 1 gusting 1 14.4
2016-Apr-28 21:11 14.4
2016-Apr-28 21:05 14.4
2016-Apr-28 21:01 098 0 gusting 2 14.4
2016-Apr-28 20:56 14.4
2016-Apr-28 20:51 104 1 gusting 3 14.4
2016-Apr-28 20:45 098 1 gusting 4 15.0
2016-Apr-28 20:41 091 2 gusting 6 15.0
2016-Apr-28 20:35 090 3 gusting 6 15.0
2016-Apr-28 20:31 079 5 gusting 7 15.0
2016-Apr-28 20:25 073 2 gusting 7 15.6
2016-Apr-28 20:21 077 1 gusting 6 15.6
2016-Apr-28 20:15 064 2 gusting 6 15.6
2016-Apr-28 20:11 069 4 gusting 6 15.6
2016-Apr-28 20:05 088 1 gusting 5 15.6
2016-Apr-28 20:01 088 1 gusting 5 15.6
2016-Apr-28 19:55 100 1 gusting 6 15.6
2016-Apr-28 19:51 113 2 gusting 6 15.6
2016-Apr-28 19:45 120 1 gusting 4 15.6
2016-Apr-28 19:41 112 1 gusting 5 15.6
2016-Apr-28 19:35 103 2 gusting 5 15.6
2016-Apr-28 19:31 106 1 gusting 6 15.6
2016-Apr-28 19:25 107 0 gusting 6 15.6
2016-Apr-28 19:21 103 3 gusting 5 15.6
2016-Apr-28 19:15 094 2 gusting 8 15.6
2016-Apr-28 19:11 094 3 gusting 8 16.1
2016-Apr-28 19:05 088 3 gusting 9 16.1
2016-Apr-28 19:01 084 4 gusting 9 16.1
2016-Apr-28 18:55 076 5 gusting 10 16.1
2016-Apr-28 18:51 076 3 gusting 11 16.1
2016-Apr-28 18:45 084 6 gusting 13 16.1
2016-Apr-28 18:41 077 4 gusting 13 16.7
2016-Apr-28 18:35 058 9 gusting 13 16.7
2016-Apr-28 18:31 044 6 gusting 8 17.2
2016-Apr-28 18:25 059 3 gusting 8 17.2
2016-Apr-28 18:21 065 5 gusting 8 17.2
2016-Apr-28 18:15 058 4 gusting 8 17.2
2016-Apr-28 18:11 052 3 gusting 9 17.2
2016-Apr-28 18:05 050 5 gusting 12 17.8
2016-Apr-28 18:01 046 6 gusting 12 17.8
2016-Apr-28 17:55 035 6 gusting 13 17.8
2016-Apr-28 17:51 034 9 gusting 13 17.2
2016-Apr-28 17:45 042 6 gusting 10 17.2
2016-Apr-28 17:41 046 6 gusting 9 17.8
2016-Apr-28 17:35 042 5 gusting 10 17.8
2016-Apr-28 17:31 058 6 gusting 10 17.8
2016-Apr-28 17:25 056 7 gusting 10 17.8
2016-Apr-28 17:21 040 4 gusting 9 17.2
2016-Apr-28 17:15 052 6 gusting 9 17.2
2016-Apr-28 17:11 041 6 gusting 12 17.2
2016-Apr-28 17:05 037 6 gusting 12 17.2
2016-Apr-28 17:01 045 6 gusting 11 17.2
2016-Apr-28 16:55 044 6 gusting 11 16.7
2016-Apr-28 16:51 049 8 gusting 11 16.7
2016-Apr-28 16:45 060 8 gusting 12 16.7
2016-Apr-28 16:41 061 9 gusting 12 16.7
2016-Apr-28 16:35 047 6 gusting 11 16.7
2016-Apr-28 16:31 044 10 gusting 11 16.7
2016-Apr-28 16:25 023 8 gusting 11 17.2
2016-Apr-28 16:21 358 5 gusting 9 17.2
2016-Apr-28 16:15 048 6 gusting 11 17.2
2016-Apr-28 16:11 061 6 gusting 11 17.2
2016-Apr-28 16:05 046 6 gusting 9 17.2
2016-Apr-28 16:01 053 6 gusting 9 17.2
2016-Apr-28 15:55 038 3 gusting 9 17.2
2016-Apr-28 15:51 016 3 gusting 9 17.8
2016-Apr-28 15:45 034 3 gusting 13 17.2
2016-Apr-28 15:41 040 6 gusting 13 17.2
2016-Apr-28 15:35 037 6 gusting 13 17.2
2016-Apr-28 15:31 049 9 gusting 14 17.2
2016-Apr-28 15:25 051 9 gusting 14 16.7
2016-Apr-28 15:21 042 9 gusting 11 17.2
2016-Apr-28 15:15 046 5 gusting 10 17.2
2016-Apr-28 15:11 038 4 gusting 13 17.2
2016-Apr-28 15:05 027 7 gusting 13 17.2
2016-Apr-28 15:01 038 6 gusting 13 17.2
2016-Apr-28 14:55 053 10 gusting 13 17.2
2016-Apr-28 14:51 038 4 gusting 16 17.2
2016-Apr-28 14:45 038 9 gusting 16 17.2
2016-Apr-28 14:41 040 6 gusting 11 17.8
2016-Apr-28 14:35 029 6 gusting 11 18.3
2016-Apr-28 14:31 062 1 gusting 9 17.8
2016-Apr-28 14:25 066 3 gusting 13 17.8
2016-Apr-28 14:21 056 1 gusting 13 17.2
2016-Apr-28 14:15 071 9 gusting 13 17.2
2016-Apr-28 14:11 061 6 gusting 13 17.2
2016-Apr-28 14:05 048 5 gusting 13 16.7
2016-Apr-28 14:01 049 9 gusting 14 16.7
2016-Apr-28 13:55 036 6 gusting 14 17.2
2016-Apr-28 13:51 031 6 gusting 13 16.7
2016-Apr-28 13:45 045 9 gusting 16 16.7
2016-Apr-28 13:41 056 6 gusting 16 17.2
2016-Apr-28 13:35 060 8 gusting 14 17.8
2016-Apr-28 13:31 051 8 gusting 14 17.2
2016-Apr-28 13:25 049 9 gusting 16 17.2
2016-Apr-28 13:21 055 9 gusting 16 17.2
2016-Apr-28 13:15 053 6 gusting 14 17.8
2016-Apr-28 13:11 045 4 gusting 15 17.2
2016-Apr-28 13:05 054 13 gusting 17 17.2
2016-Apr-28 13:01 060 9 gusting 17 16.7
2016-Apr-28 12:55 058 10 gusting 15 16.7
2016-Apr-28 12:51 058 9 gusting 16 16.7
2016-Apr-28 12:45 048 11 gusting 16 16.7
2016-Apr-28 12:41 042 11 gusting 15 17.2
2016-Apr-28 12:35 047 4 gusting 13 17.2
2016-Apr-28 12:31 042 10 gusting 14 16.7
2016-Apr-28 12:25 040 9 gusting 15 16.7
2016-Apr-28 12:21 038 12 gusting 15 16.7
2016-Apr-28 12:15 044 6 gusting 13 16.7
2016-Apr-28 12:11 050 0 gusting 13 16.1
2016-Apr-28 12:05 048 6 gusting 14 16.1
2016-Apr-28 12:01 034 8 gusting 14 16.7
2016-Apr-28 11:55 025 7 gusting 13 16.7
2016-Apr-28 11:51 031 8 gusting 13 16.7
2016-Apr-28 11:45 026 6 gusting 13 16.7
2016-Apr-28 11:41 044 9 gusting 13 16.7
2016-Apr-28 11:35 068 5 gusting 9 16.7
2016-Apr-28 11:31 043 6 gusting 13 16.7
2016-Apr-28 11:25 035 6 gusting 13 16.7
2016-Apr-28 11:21 054 10 gusting 13 16.1
2016-Apr-28 11:15 069 7 gusting 12 16.7
2016-Apr-28 11:11 051 9 gusting 11 16.1
2016-Apr-28 11:05 048 8 gusting 13 16.1
2016-Apr-28 11:01 052 7 gusting 13 15.6
2016-Apr-28 10:55 073 3 gusting 13 15.6
2016-Apr-28 10:51 074 1 gusting 11 15.6
2016-Apr-28 10:45 052 6 gusting 14 15.6
2016-Apr-28 10:41 063 9 gusting 14 15.6
2016-Apr-28 10:35 086 8 gusting 13 15.6
2016-Apr-28 10:31 087 6 gusting 13 15.0
2016-Apr-28 10:25 082 3 gusting 11 15.0
2016-Apr-28 10:20 060 6 gusting 11 15.0
2016-Apr-28 10:15 062 6 gusting 9 15.0
2016-Apr-28 10:11 070 4 gusting 11 14.4
2016-Apr-28 10:05 075 3 gusting 13 13.9
2016-Apr-28 10:01 067 6 gusting 13 13.3
2016-Apr-28 09:55 048 8 gusting 11 13.3
2016-Apr-28 09:51 039 6 gusting 7 13.3
2016-Apr-28 09:45 039 5 gusting 9 12.8
2016-Apr-28 09:40 027 6 gusting 9 13.3
2016-Apr-28 09:35 013 6 gusting 8 13.3
2016-Apr-28 09:31 032 6 gusting 7 13.9
2016-Apr-28 09:25 048 4 gusting 9 13.9
2016-Apr-28 09:20 043 6 gusting 10 13.9
2016-Apr-28 09:15 051 6 gusting 10 13.9
2016-Apr-28 09:10 082 5 gusting 9 14.4
2016-Apr-28 09:05 072 2 gusting 13 14.4
2016-Apr-28 09:01 053 7 gusting 13 13.9
2016-Apr-28 08:55 051 6 gusting 13 13.3
2016-Apr-28 08:50 065 6 gusting 13 13.9
2016-Apr-28 08:45 071 6 gusting 11 14.4
2016-Apr-28 08:40 064 8 gusting 11 15.0
2016-Apr-28 08:35 074 5 gusting 11 13.9
2016-Apr-28 08:31 078 6 gusting 10 13.3
2016-Apr-28 08:25 084 6 gusting 10 13.3
2016-Apr-28 08:20 074 6 gusting 9 12.8
2016-Apr-28 08:15 056 6 gusting 9 12.2
2016-Apr-28 08:10 052 5 gusting 13 12.2
2016-Apr-28 08:05 038 6 gusting 13 12.2
2016-Apr-28 08:00 036 10 gusting 13 12.2
2016-Apr-28 07:55 041 7 gusting 12 12.2
2016-Apr-28 07:50 054 7 gusting 11 12.2
2016-Apr-28 07:45 056 7 gusting 9 12.8
2016-Apr-28 07:40 043 6 gusting 9 12.8
2016-Apr-28 07:35 040 6 gusting 9 12.2
2016-Apr-28 07:30 050 4 gusting 9 12.2
2016-Apr-28 07:25 061 6 gusting 9 12.8
2016-Apr-28 07:21 070 6 gusting 7 12.8
2016-Apr-28 07:15 084 1 gusting 7 12.2
2016-Apr-28 07:11 087 3 gusting 7 12.2
2016-Apr-28 07:05 086 3 gusting 9 11.7
2016-Apr-28 07:00 085 2 gusting 9 11.1
2016-Apr-28 06:55 089 6 gusting 9 11.1
2016-Apr-28 06:50 087 2 gusting 6 11.1
2016-Apr-28 06:45 075 3 gusting 7 11.1
2016-Apr-28 06:40 075 3 gusting 9 11.1
2016-Apr-28 06:35 067 6 gusting 9 11.1
2016-Apr-28 06:30 060 2 gusting 7 11.1
2016-Apr-28 06:25 056 2 gusting 7 11.1
2016-Apr-28 06:20 054 5 gusting 7 11.1
2016-Apr-28 06:15 055 4 gusting 7 11.1
2016-Apr-28 06:10 051 4 gusting 10 11.1
2016-Apr-28 06:05 056 6 gusting 10 11.1
2016-Apr-28 06:01 058 3 gusting 9 11.1
2016-Apr-28 05:55 047 6 gusting 12 11.1
2016-Apr-28 05:50 046 6 gusting 13 11.1
2016-Apr-28 05:45 041 9 gusting 13 11.1
2016-Apr-28 05:40 047 6 gusting 11 11.1
2016-Apr-28 05:35 059 7 gusting 11 11.7
2016-Apr-28 05:31 059 4 gusting 10 11.7
2016-Apr-28 05:25 052 7 gusting 10 11.7
2016-Apr-28 05:20 041 6 gusting 10 11.7
2016-Apr-28 05:15 038 6 gusting 8 11.7
2016-Apr-28 05:10 046 5 gusting 8 11.7
2016-Apr-28 05:05 048 6 gusting 9 11.7
2016-Apr-28 05:00 049 6 gusting 9 11.7
2016-Apr-28 04:55 052 6 gusting 10 11.7
2016-Apr-28 04:50 051 6 gusting 10 11.7
2016-Apr-28 04:45 048 8 gusting 10 11.7
2016-Apr-28 04:40 046 6 gusting 10 11.7
2016-Apr-28 04:35 046 6 gusting 8 11.7
2016-Apr-28 04:30 045 6 gusting 10 11.7
2016-Apr-28 04:25 056 4 gusting 11 11.7
2016-Apr-28 04:20 067 7 gusting 11 11.7
2016-Apr-28 04:15 061 4 gusting 8 11.7
2016-Apr-28 04:10 053 5 gusting 8 11.7
2016-Apr-28 04:05 053 6 gusting 8 11.7
2016-Apr-28 04:00 046 6 gusting 8 11.7
2016-Apr-28 03:55 049 6 gusting 9 11.7
2016-Apr-28 03:50 051 4 gusting 9 11.7
2016-Apr-28 03:45 052 6 gusting 8 11.7
2016-Apr-28 03:40 048 3 gusting 7 11.7
2016-Apr-28 03:35 046 4 gusting 6 11.7
2016-Apr-28 03:30 049 4 gusting 9 11.7
2016-Apr-28 03:25 046 5 gusting 9 11.7
2016-Apr-28 03:20 055 6 gusting 9 11.7
2016-Apr-28 03:15 064 6 gusting 9 11.7
2016-Apr-28 03:10 050 6 gusting 7 11.7
2016-Apr-28 03:05 044 6 gusting 7 11.7
2016-Apr-28 02:55 040 4 gusting 7 11.7
2016-Apr-28 02:50 042 3 gusting 7 11.7
2016-Apr-28 02:45 049 6 gusting 8 11.7
2016-Apr-28 02:40 048 4 gusting 9 11.7
2016-Apr-28 02:35 048 6 gusting 9 11.7
2016-Apr-28 02:30 056 6 gusting 9 11.7
2016-Apr-28 02:25 048 4 gusting 7 11.7
2016-Apr-28 02:20 034 6 gusting 9 11.7
2016-Apr-28 02:15 041 5 gusting 9 11.7
2016-Apr-28 02:10 071 4 gusting 8 11.7
2016-Apr-28 02:05 080 5 gusting 8 11.7
2016-Apr-28 02:00 068 2 gusting 6 11.7
2016-Apr-28 01:55 044 3 gusting 6 11.7
2016-Apr-28 01:50 042 5 gusting 9 11.7
2016-Apr-28 01:45 047 4 gusting 9 11.7
2016-Apr-28 01:40 057 5 gusting 9 11.7
2016-Apr-28 01:35 066 6 gusting 8 12.2
2016-Apr-28 01:30 067 4 gusting 6 11.7
2016-Apr-28 01:25 104 1 gusting 6 11.7
2016-Apr-28 01:20 092 2 gusting 6 12.2
2016-Apr-28 01:15 046 3 gusting 6 12.2
2016-Apr-28 01:10 026 5 gusting 6 12.2
2016-Apr-28 01:05 030 4 gusting 7 12.2
2016-Apr-28 01:00 067 5 gusting 8 12.8
2016-Apr-28 00:55 075 6 gusting 10 12.8
2016-Apr-28 00:50 069 6 gusting 10 12.8
2016-Apr-28 00:45 077 6 gusting 8 12.8
2016-Apr-28 00:40 087 3 gusting 6 12.8
2016-Apr-28 00:35 086 4 gusting 6 12.8
2016-Apr-28 00:30 075 3 gusting 6 12.8
2016-Apr-28 00:25 074 3 gusting 8 12.8
2016-Apr-28 00:20 081 3 gusting 8 12.8
2016-Apr-28 00:15 090 3 gusting 6 12.8
2016-Apr-28 00:10 090 4 gusting 8 12.8
2016-Apr-28 00:05 086 3 gusting 8 12.8
2016-Apr-28 00:00 076 3 gusting 10 13.3
2016-Apr-27 23:55 080 3 gusting 10 13.3
2016-Apr-27 23:50 075 6 gusting 9 13.3
2016-Apr-27 23:45 062 4 gusting 10 13.3
2016-Apr-27 23:40 059 6 gusting 10 13.3
2016-Apr-27 23:35 053 3 gusting 9 13.3
2016-Apr-27 23:30 068 4 gusting 9 13.3
2016-Apr-27 23:25 076 6 gusting 7 13.3
2016-Apr-27 23:20 079 5 gusting 9 13.3
2016-Apr-27 23:15 084 3 gusting 11 13.3
2016-Apr-27 23:10 068 6 gusting 11 13.3
2016-Apr-27 23:05 061 6 gusting 11 13.3
2016-Apr-27 23:00 068 7 gusting 10 13.9
2016-Apr-27 22:55 086 3 gusting 9 13.9
2016-Apr-27 22:50 097 3 gusting 9 13.9
2016-Apr-27 22:45 092 2 gusting 9 13.9
2016-Apr-27 22:40 087 6 gusting 9 13.9
2016-Apr-27 22:35 079 6 gusting 9 13.9
2016-Apr-27 22:30 073 3 gusting 8 13.9
2016-Apr-27 22:25 080 4 gusting 8 13.9
2016-Apr-27 22:20 088 6 gusting 8 13.9
2016-Apr-27 22:15 095 3 gusting 6 14.4
2016-Apr-27 22:10 092 3 gusting 6 14.4
2016-Apr-27 22:05 090 3 gusting 7 13.9
2016-Apr-27 22:00 088 6 gusting 9 13.9
2016-Apr-27 21:55 091 6 gusting 9 13.9
2016-Apr-27 21:50 101 5 gusting 7 14.4
2016-Apr-27 21:45 096 3 gusting 7 14.4
2016-Apr-27 21:40 090 4 gusting 7 14.4
2016-Apr-27 21:35 095 4 gusting 7 14.4
2016-Apr-27 21:30 094 6 gusting 7 14.4
2016-Apr-27 21:25 090 5 gusting 8 14.4
2016-Apr-27 21:20 091 5 gusting 8 14.4
2016-Apr-27 21:15 087 6 gusting 8 14.4
2016-Apr-27 21:10 090 3 gusting 8 14.4
2016-Apr-27 21:05 089 2 gusting 8 14.4
2016-Apr-27 21:00 081 5 gusting 7 15.0
2016-Apr-27 20:55 077 3 gusting 7 15.0
2016-Apr-27 20:50 083 5 gusting 7 15.0
2016-Apr-27 20:45 093 3 gusting 9 15.0
2016-Apr-27 20:40 081 4 gusting 9 15.0
2016-Apr-27 20:35 073 6 gusting 9 15.0
2016-Apr-27 20:30 069 5 gusting 8 15.0
2016-Apr-27 20:25 080 3 gusting 8 15.0
2016-Apr-27 20:20 090 7 gusting 8 15.0
2016-Apr-27 20:15 076 4 gusting 6 15.6
2016-Apr-27 20:10 068 1 gusting 6 15.6
2016-Apr-27 20:05 076 4 gusting 6 15.6
2016-Apr-27 20:00 080 4 gusting 6 15.6
2016-Apr-27 19:55 082 5 gusting 9 15.6
2016-Apr-27 19:50 087 4 gusting 10 15.6
2016-Apr-27 19:45 091 6 gusting 10 15.6
2016-Apr-27 19:40 073 6 gusting 7 15.6
2016-Apr-27 19:35 053 1 gusting 6 15.6
2016-Apr-27 19:30 068 4 gusting 6 15.6
2016-Apr-27 19:25 086 2 gusting 6 15.6
2016-Apr-27 19:20 079 5 gusting 6 16.1
2016-Apr-27 19:15 065 4 gusting 8 16.1
2016-Apr-27 19:10 060 4 gusting 8 16.1
2016-Apr-27 19:05 056 6 gusting 9 16.1
2016-Apr-27 19:00 063 4 gusting 9 16.1
2016-Apr-27 18:55 056 3 gusting 7 16.7
2016-Apr-27 18:50 047 5 gusting 7 16.1
2016-Apr-27 18:45 057 5 gusting 9 16.7
2016-Apr-27 18:40 071 4 gusting 11 16.7
2016-Apr-27 18:35 065 6 gusting 11 16.7
2016-Apr-27 18:30 047 6 gusting 9 16.7
2016-Apr-27 18:25 050 6 gusting 10 16.7
2016-Apr-27 18:20 047 8 gusting 10 16.7
2016-Apr-27 18:15 042 5 gusting 10 17.2
2016-Apr-27 18:10 039 4 gusting 10 17.2
2016-Apr-27 18:05 035 6 gusting 10 17.8
2016-Apr-27 18:00 026 8 gusting 10 17.8
2016-Apr-27 17:55 010 6 gusting 8 17.8
2016-Apr-27 17:50 350 4 gusting 10 17.8
2016-Apr-27 17:45 352 4 gusting 13 17.8
2016-Apr-27 17:40 346 6 gusting 13 17.8
2016-Apr-27 17:35 337 7 gusting 10 18.3
2016-Apr-27 17:30 359 6 gusting 14 18.3
2016-Apr-27 17:25 351 5 gusting 20 18.3
2016-Apr-27 17:20 311 11 gusting 20 18.9
2016-Apr-27 17:15 259 14 gusting 19 19.4
2016-Apr-27 17:10 265 4 gusting 17 19.4
2016-Apr-27 17:05 278 10 gusting 19 19.4
2016-Apr-27 17:00 274 10 gusting 19 19.4
2016-Apr-27 16:55 278 12 gusting 17 19.4
2016-Apr-27 16:50 292 13 gusting 15 19.4
2016-Apr-27 16:45 293 6 gusting 18 19.4
2016-Apr-27 16:40 276 10 gusting 18 19.4
2016-Apr-27 16:35 285 13 gusting 17 20.0
2016-Apr-27 16:30 301 10 gusting 17 20.0
2016-Apr-27 16:25 299 8 gusting 15 20.0
2016-Apr-27 16:20 300 6 gusting 16 20.0
2016-Apr-27 16:15 295 10 gusting 22 20.0
2016-Apr-27 16:10 284 13 gusting 22 20.0
2016-Apr-27 16:05 275 13 gusting 21 20.0
2016-Apr-27 16:00 278 9 gusting 19 20.0
2016-Apr-27 15:55 271 15 gusting 19 20.0
2016-Apr-27 15:50 263 9 gusting 19 20.0
2016-Apr-27 15:45 255 9 gusting 20 20.0
2016-Apr-27 15:40 273 13 gusting 20 20.0
2016-Apr-27 15:35 300 10 gusting 20 20.0
2016-Apr-27 15:30 284 14 gusting 20 20.6
2016-Apr-27 15:25 270 9 gusting 20 20.6
2016-Apr-27 15:20 239 14 gusting 19 20.6
2016-Apr-27 15:15 241 13 gusting 17 20.6
2016-Apr-27 15:10 279 10 gusting 21 20.6
2016-Apr-27 15:05 291 10 gusting 21 20.6
2016-Apr-27 15:00 283 15 gusting 23 20.6
2016-Apr-27 14:55 250 18 gusting 23 20.6
2016-Apr-27 14:50 239 16 gusting 19 20.6
2016-Apr-27 14:45 251 11 gusting 23 20.6
2016-Apr-27 14:40 253 9 gusting 23 20.6
2016-Apr-27 14:35 258 19 gusting 23 20.6
2016-Apr-27 14:30 267 9 gusting 19 20.6
2016-Apr-27 14:25 270 17 gusting 23 20.6
2016-Apr-27 14:20 283 14 gusting 26 20.6
2016-Apr-27 14:15 289 19 gusting 26 21.1
2016-Apr-27 14:05 269 6 gusting 17 21.1
2016-Apr-27 14:00 260 7 gusting 17 21.1
2016-Apr-27 13:55 271 9 gusting 14 21.1
2016-Apr-27 13:50 289 8 gusting 14 21.7
2016-Apr-27 13:45 282 9 gusting 29 21.1
2016-Apr-27 13:40 273 9 gusting 29 20.6
2016-Apr-27 13:35 264 23 gusting 29 21.1
2016-Apr-27 13:30 273 9 gusting 20 21.1
2016-Apr-27 13:25 289 5 gusting 21 21.1
2016-Apr-27 13:20 271 17 gusting 21 21.1
2016-Apr-27 13:15 257 9 gusting 19 21.1
2016-Apr-27 13:10 247 11 gusting 19 20.6
2016-Apr-27 13:05 243 14 gusting 18 20.6
2016-Apr-27 13:00 255 12 gusting 19 20.6
2016-Apr-27 12:55 260 6 gusting 19 20.6
2016-Apr-27 12:50 277 13 gusting 19 20.6
2016-Apr-27 12:45 257 15 gusting 19 21.1
2016-Apr-27 12:40 237 13 gusting 18 20.6
2016-Apr-27 12:35 230 9 gusting 15 20.6
2016-Apr-27 12:30 218 9 gusting 15 20.6
2016-Apr-27 12:25 225 9 gusting 17 20.6
2016-Apr-27 12:20 235 6 gusting 17 20.6
2016-Apr-27 12:15 238 10 gusting 17 20.6
2016-Apr-27 12:10 201 9 gusting 16 20.0
2016-Apr-27 12:05 176 13 gusting 16 21.1
2016-Apr-27 12:00 190 9 gusting 12 21.1
2016-Apr-27 11:55 219 4 gusting 12 20.0
2016-Apr-27 11:50 240 6 gusting 12 20.6
2016-Apr-27 11:45 234 6 gusting 9 21.1
2016-Apr-27 11:40 191 1 gusting 12 20.6
2016-Apr-27 11:35 212 5 gusting 13 19.4
2016-Apr-27 11:30 232 9 gusting 13 19.4
2016-Apr-27 11:25 218 3 gusting 12 19.4
2016-Apr-27 11:20 205 7 gusting 13 19.4
2016-Apr-27 11:15 226 6 gusting 13 18.9
2016-Apr-27 11:10 239 10 gusting 13 19.4
2016-Apr-27 11:05 225 7 gusting 13 19.4
2016-Apr-27 11:00 228 5 gusting 13 18.3
2016-Apr-27 10:55 240 8 gusting 12 18.9
2016-Apr-27 10:50 223 6 gusting 9 18.9
2016-Apr-27 10:45 226 5 gusting 9 18.9
2016-Apr-27 10:40 231 6 gusting 11 18.9
2016-Apr-27 10:35 222 3 gusting 11 18.3
2016-Apr-27 10:30 222 6 gusting 9 19.4
2016-Apr-27 10:25 220 5 gusting 9 20.6
2016-Apr-27 10:20 210 1 gusting 8 20.6
2016-Apr-27 10:15 176 0 gusting 6 20.6
2016-Apr-27 10:10 185 2 gusting 6 20.0
2016-Apr-27 10:05 194 1 gusting 4 20.6
2016-Apr-27 10:00 183 1 gusting 4 20.6
2016-Apr-27 09:55 197 2 gusting 3 19.4
2016-Apr-27 09:50 224 1 gusting 3 18.9
2016-Apr-27 09:45 125 1 gusting 3 19.4
2016-Apr-27 09:40 122 0 gusting 3 19.4
2016-Apr-27 09:35 120 2 gusting 3 18.9
2016-Apr-27 09:30 18.9
2016-Apr-27 09:25 117 0 gusting 3 18.9
2016-Apr-27 09:20 145 1 gusting 3 18.3
2016-Apr-27 09:15 148 1 gusting 3 18.3
2016-Apr-27 09:10 17.2
2016-Apr-27 09:05 114 2 gusting 3 16.7
2016-Apr-27 09:00 105 1 gusting 3 16.7
2016-Apr-27 08:55 111 1 gusting 3 16.7
2016-Apr-27 08:50 111 1 gusting 2 16.7
2016-Apr-27 08:45 091 1 gusting 3 16.1
2016-Apr-27 08:40 079 1 gusting 3 15.6
2016-Apr-27 08:35 15.6
2016-Apr-27 08:30 120 1 gusting 2 15.6
2016-Apr-27 08:25 130 1 gusting 2 15.0
2016-Apr-27 08:20 132 1 gusting 4 14.4
2016-Apr-27 08:15 114 1 gusting 5 13.9
2016-Apr-27 08:10 101 3 gusting 5 13.9
2016-Apr-27 08:05 112 1 gusting 3 13.9
2016-Apr-27 08:00 110 1 gusting 3 13.9
2016-Apr-27 07:55 089 1 gusting 3 13.9
2016-Apr-27 07:50 087 1 gusting 3 13.3
2016-Apr-27 07:45 093 1 gusting 3 13.3
2016-Apr-27 07:40 098 1 gusting 3 13.3
2016-Apr-27 07:35 110 1 gusting 2 13.3
2016-Apr-27 07:30 112 1 gusting 2 13.3
2016-Apr-27 07:25 100 0 gusting 3 12.8
2016-Apr-27 07:20 090 1 gusting 3 12.8
2016-Apr-27 07:15 091 1 gusting 3 12.2
2016-Apr-27 07:10 104 1 gusting 3 12.2
2016-Apr-27 07:05 078 1 gusting 3 12.2
2016-Apr-27 07:00 068 1 gusting 3 12.2
2016-Apr-27 06:55 087 1 gusting 3 12.2
2016-Apr-27 06:50 112 0 gusting 2 12.2
2016-Apr-27 06:45 110 1 gusting 2 11.7
2016-Apr-27 06:40 089 0 gusting 3 11.1
2016-Apr-27 06:35 091 1 gusting 3 11.1
2016-Apr-27 06:30 104 1 gusting 3 10.6
2016-Apr-27 06:25 095 1 gusting 5 10.6
2016-Apr-27 06:20 093 2 gusting 5 10.6
2016-Apr-27 06:15 098 3 gusting 4 10.6
2016-Apr-27 06:10 092 1 gusting 4 10.6
2016-Apr-27 06:05 088 2 gusting 4 10.6
2016-Apr-27 06:00 094 1 gusting 3 10.6
2016-Apr-27 05:55 089 2 gusting 3 10.6
2016-Apr-27 05:50 085 3 gusting 3 10.6
2016-Apr-27 05:45 097 2 gusting 3 10.6
2016-Apr-27 05:40 099 2 gusting 3 10.6
2016-Apr-27 05:35 077 1 gusting 4 10.6
2016-Apr-27 05:30 076 1 gusting 5 10.6
2016-Apr-27 05:25 083 1 gusting 5 10.6
2016-Apr-27 05:20 090 3 gusting 4 10.6
2016-Apr-27 05:15 097 2 gusting 3 10.6
2016-Apr-27 05:10 094 0 gusting 2 10.6
2016-Apr-27 05:05 093 1 gusting 2 10.6
2016-Apr-27 05:00 101 1 gusting 1 10.6
2016-Apr-27 04:55 10.6
2016-Apr-27 04:50 098 0 gusting 2 10.6
2016-Apr-27 04:45 090 0 gusting 2 10.6
2016-Apr-27 04:40 081 1 gusting 2 10.6
2016-Apr-27 04:35 081 1 gusting 2 10.6
2016-Apr-27 04:30 10.6
2016-Apr-27 04:25 10.6
2016-Apr-27 04:20 114 0 gusting 1 10.6
2016-Apr-27 04:15 10.6
2016-Apr-27 04:10 10.6
2016-Apr-27 04:05 10.6
2016-Apr-27 04:00 10.6
2016-Apr-27 03:55 10.6
2016-Apr-27 03:50 10.6
2016-Apr-27 03:45 173 0 gusting 2 11.1
2016-Apr-27 03:40 161 1 gusting 2 11.1
2016-Apr-27 03:35 11.1
2016-Apr-27 03:30 110 0 gusting 1 11.1
2016-Apr-27 03:25 11.7
2016-Apr-27 03:20 11.7
2016-Apr-27 03:15 347 0 gusting 2 11.7
2016-Apr-27 03:10 354 1 gusting 2 11.7
2016-Apr-27 03:05 006 1 gusting 1 11.7
2016-Apr-27 03:00 035 0 gusting 1 11.7